Starlink 32259

operational
NORAD ID: 60937 Int'l Des: 2024-155 Owner: SPXS Country: US Constellation: starlink
LEOCIRCULAR

关于 Starlink 32259

正在加载描述...

实时位置

正在加载3D地球...

即将过境

高度历史

Altitude vs Time

uPlot chart will show altitude changes over time

两行轨道根数

1 60937U 24155P 26037.82921734 -.00000650 00000-0 -98402-5 0 9997
2 60937 53.1584 273.1778 0001157 98.1685 261.9446 15.30188505 81613
Epoch: Feb 6, 2026 • Age: 5 hours

当前状态

高度 477.0 km
速度 7.63 km/s
星下点 -4.26°S, 123.22°E
发射日期 Aug 31, 2024
运行时间 1.4 years
类型 internet

技术详情

分类 Payload
质量 730.00 kg
干质量 700.00 kg
总质量 730.00 kg
长度 0.30 m
直径 4.10 m
跨度 29.00 m
形状 Box + pan
制造商 SPXS
平台类型 Starlink V2M
阶段状态 In Orbit
所有者/国家 SPXS/US

大型星座

Loading constellations...